Regional Weather Roundup
Issued by NWS

Home | Current Version | Previous Version | Graphics & Text | Print | Product List | Glossary Off
Versions: 1 2 3 4 5 6 7 8 9 10 11 12 13 14 15 16 17 18 19 20 21 22 23 24 25 26 27 28 29 30 31 32 33 34 35 36 37 38 39 40 41 42 43 44 45 46 47 48 49 50

000
ASUS43 KTOP 181159
RWRKS

WEATHER ROUNDUP FOR KANSAS
NATIONAL WEATHER SERVICE GOODLAND KS
600 AM CST SAT NOV 18 2017

NOTE:  "FAIR" INDICATES FEW OR NO CLOUDS BELOW 12,000 FEET WITH NO
SIGNIFICANT WEATHER AND/OR OBSTRUCTIONS TO VISIBILITY.

KSZ001>006-013>018-027>032-041>047-181300-
NORTHWEST KANSAS

CITY           SKY/WX    TMP DP  RH WIND       PRES   REMARKS
GOODLAND       CLOUDY    37  32  82 NW24G32   30.03R WCI  26
6HR MIN TEMP:  37; 6HR MAX TEMP:  43; 6HR PCP:  0.02;

HAYS           LGT RAIN  41  38  89 N24G33    29.90R
HILL CITY      LGT RAIN  39  37  92 N21G36    29.96R WCI  29
6HR MIN TEMP:  39; 6HR MAX TEMP:  44; 6HR PCP:  0.08;

RUSSELL        LGT RAIN  41  40  96 NW24G33   29.87R
6HR MIN TEMP:  41; 6HR MAX TEMP:  46; 6HR PCP: TRACE;

$$

KSZ061>065-074>080-084>089-181300-
SOUTHWEST KANSAS

CITY           SKY/WX    TMP DP  RH WIND       PRES   REMARKS
DODGE CITY     LGT RAIN  44  39  82 NW21G45   29.89R
6HR MIN TEMP:  42; 6HR MAX TEMP:  47; 6HR PCP:  0.01;

GARDEN CITY    CLOUDY    42  37  82 N25G40    29.95R
6HR MIN TEMP:  41; 6HR MAX TEMP:  46; 6HR PCP: TRACE;

GREAT BEND     LGT RAIN  42  39  89 N25G32    29.87R
LIBERAL        CLOUDY    43  35  73 NW21G28   29.97R
$$

KSZ066>073-081>083-090>101-181300-
SOUTHEAST KANSAS

CITY           SKY/WX    TMP DP  RH WIND       PRES   REMARKS
CHANUTE        CLOUDY    54  51  90 NW25G36   29.55R
6HR MIN TEMP:  54; 6HR MAX TEMP:  70;

COFFEYVILLE    CLOUDY    54  51  90 NW21G28   29.57R FOG
6HR MIN TEMP:  54; 6HR MAX TEMP:  71;

HUTCHINSON     CLOUDY    46  41  82 N23G38    29.76R
6HR MIN TEMP:  45; 6HR MAX TEMP:  53; 6HR PCP: TRACE;

MEDICINE LODGE   N/A     48  39  71 NW21G36   29.80R
NEWTON         CLOUDY    45  39  79 NW25G37   29.73R
PARSONS        CLOUDY    54  53  97 NW17G29   29.57R FOG
6HR MIN TEMP:  54; 6HR MAX TEMP:  71;

WICHITA INTL   CLOUDY    48  41  76 N26G35    29.72R
6HR MIN TEMP:  48; 6HR MAX TEMP:  63;

WICHITA JABRA  CLOUDY    47  41  80 NW26G36   29.71R
6HR MIN TEMP:  47; 6HR MAX TEMP:  68; 6HR PCP: TRACE;

WICHITA MCCONL MOCLDY    48  39  70 N26G32    29.70R
WINFIELD       CLOUDY    50  43  77 N23G39    29.69R
6HR MIN TEMP:  50; 6HR MAX TEMP:  71;

$$

KSZ007>012-019>026-033>040-048>060-102>105-181300-
NORTHEAST KANSAS

CITY           SKY/WX    TMP DP  RH WIND       PRES   REMARKS
CONCORDIA      CLOUDY    40  37  89 N20G29    29.80R WCI  30
6HR MIN TEMP:  40; 6HR MAX TEMP:  47; 6HR PCP:  0.07;

EMPORIA        LGT RAIN  47  42  83 NW26G39   29.64R
6HR MIN TEMP:  47; 6HR MAX TEMP:  60; 6HR PCP: TRACE;

LAWRENCE       LGT RAIN  48  45  89 NW25G35   29.59R
6HR MIN TEMP:  48; 6HR MAX TEMP:  59; 6HR PCP:  0.01;

MANHATTAN      CLOUDY    46  41  82 N13G28    29.72R
6HR MIN TEMP:  46; 6HR MAX TEMP:  58; 6HR PCP:  0.01;

OLATHE IND     CLOUDY    49  48  97 N24G39    29.53R
6HR MIN TEMP:  49; 6HR MAX TEMP:  61; 6HR PCP: TRACE;

OLATHE EXE     LGT RAIN  49  49 100 N23G31    29.51R FOG
6HR MIN TEMP:  49; 6HR MAX TEMP:  60; 6HR PCP: TRACE;

SALINA         LGT RAIN  45  41  86 N26G33    29.78R
6HR MIN TEMP:  45; 6HR MAX TEMP:  52; 6HR PCP: TRACE;

TOPEKA BILLARD CLOUDY    48  43  82 NW21G35   29.64R
6HR MIN TEMP:  48; 6HR MAX TEMP:  57; 6HR PCP: TRACE;

TOPEKA FORBES  CLOUDY    49  43  80 N32G44    29.62R
6HR MIN TEMP:  49; 6HR MAX TEMP:  59; 6HR PCP: TRACE;

$$




USA.gov is the U.S. government's official web portal to all federal, state and local government web resources and services.